Location: Unspecified
(50.7693°N, 0.0000°E)
Time: 19:43:33
(UTC+00:00)

Transit 4A - Pass Details

Date: 04 July 2019
Orbit: 863 x 981 km, 66.8° (Epoch: 22 August)

Event Time Altitude Azimuth Distance (km) Brightness Sun altitude
Rises 07:20:32 0° 249° (WSW) 3,652 10.5 29.4°
Reaches altitude 10° 07:23:18 10° 257° (WSW) 2,719 9.9 29.9°
Maximum altitude 07:29:11 37° 324° (NW) 1,474 9.0 30.8°
Drops below altitude 10° 07:35:07 10° 31° (NNE) 2,743 10.8 31.7°
Sets 07:37:55 0° 40° (NE) 3,689 11.5 32.2°
